Regional Weather Roundup
Issued by NWS Upton, NY

Current Version | Previous Version | Text Only | Print | Product List | Glossary On
Versions: 1 2 3 4 5 6 7 8 9 10 11 12 13 14 15 16 17 18 19 20 21 22 23 24 25 26 27 28 29 30 31 32 33 34 35 36 37 38 39 40 41 42 43 44 45 46 47 48 49 50
000
ASUS41 KOKX 010305
RWROKX

REGIONAL WEATHER ROUNDUP
NATIONAL WEATHER SERVICE NEW YORK NY
1000 PM EST SAT FEB 28 2015

NOTE: "FAIR" INDICATES FEW OR NO CLOUDS BELOW 12,000 FEET WITH NO
SIGNIFICANT WEATHER AND/OR OBSTRUCTIONS TO VISIBILITY.

NYZ071-072-176-178-NJZ106-104-010400-
NEW YORK CITY METRO AREA


CITY           SKY/WX    TMP DP  RH WIND       PRES   REMARKS
CENTRAL PARK   CLEAR     27   1  32 W6        30.76F WCI  20
LAGUARDIA APRT PTCLDY    27   3  35 W5        30.75S WCI  22
KENNEDY INTL   PTCLDY    26   3  37 W8        30.77S WCI  18
NEWARK/LIBERTY PTCLDY    24   3  40 SW5       30.76S WCI  18
BRNX BOT. GARD   N/A    N/A N/A N/A W3        30.76S
TETERBORO      CLEAR     20   5  52 CALM      30.75F
$$

NYZ177-179-078>081-010400-
LONG ISLAND NEW YORK

CITY           SKY/WX    TMP DP  RH WIND       PRES   REMARKS
FARMINGDALE    CLEAR     19   7  59 CALM      30.76S
ISLIP          PTCLDY    19   6  57 CALM      30.74S
SHIRLEY        CLEAR     15   4  61 CALM      30.77S
WESTHAMPTON    CLEAR      5  -4  66 CALM      30.77S
MONTAUK POINT    N/A     24  11  57 SW3       30.76S
$$

NYZ052-065-067-010400-
HUDSON VALLEY

CITY           SKY/WX    TMP DP  RH WIND       PRES   REMARKS
WHITE PLAINS   CLEAR     14   3  61 NW5       30.71S WCI   6
NEWBURGH       CLEAR      9   0  66 CALM      30.72S
MONTGOMERY     CLEAR      6  -2  69 CALM      30.71S
POUGHKEEPSIE   CLEAR      8  -1  66 CALM      30.74S
ALBANY         CLEAR     15   0  51 W6        30.73S WCI   6
$$

NJZ001-105-106-008-010-013-015-019>022-104-010400-
NEW JERSEY

CITY           SKY/WX    TMP DP  RH WIND       PRES   REMARKS
NEWARK/LIBERTY PTCLDY    24   3  40 SW5       30.76S WCI  18
TETERBORO      CLEAR     20   5  52 CALM      30.75F
CALDWELL       CLEAR     17   3  54 CALM      30.76S
MORRISTOWN     CLEAR     12   3  67 CALM      30.76S
SOMERVILLE     CLEAR     13   3  64 CALM      30.74F
SUSSEX         CLEAR     11   2  67 CALM      30.72F
ANDOVER          N/A      6   1  80 CALM      30.72F
TRENTON        CLEAR     20   0  41 CALM      30.76R
MILLVILLE      CLEAR     18   7  62 W3        30.78S
ATLANTIC CITY  CLEAR     21   6  52 W3        30.78S
WRIGHTSTOWN    CLEAR     17   5  60 S3        30.75R
TOMS RIVER     CLEAR     12   9  85 CALM      30.78S
BELMAR         CLEAR     21   9  58 S6        30.76S WCI  14
$$

PAZ047>061-062-071-010400-
EASTERN PENNSYLVANIA

CITY           SKY/WX    TMP DP  RH WIND       PRES   REMARKS
PHILADELPHIA   CLEAR     24   5  44 W7        30.80R WCI  16
ALLENTOWN      CLEAR     14  -1  51 SW3       30.74S
SCRANTON       CLEAR     15  -1  49 E7        30.68S WCI   5
$$

CTZ002-004>006-009-010-012-RIZ004-006-007-MAZ004-011-015-010400-
SOUTHERN NEW ENGLAND
 IN CT

CITY           SKY/WX    TMP DP  RH WIND       PRES   REMARKS
BRADLEY INTL   CLEAR     21   0  39 CALM      30.73R
HARTFORD       CLEAR     12   4  70 MISG      30.75R
DANBURY        CLEAR      7  -2  66 SW3       30.74R
WTRBRY/OXFORD  CLEAR     16  -6  38 CALM      30.71R
BRIDGEPORT     CLEAR     20   8  60 CALM      30.76R
MERIDEN        CLEAR     10   1  67 CALM      30.75R
NEW HAVEN      CLEAR     12   5  73 CALM      30.75S
CHESTER        FAIR      23   7  50 W3        30.72S
GROTON         CLEAR     19  10  68 W7        30.75R WCI  10
WILLIMANTIC    CLEAR      8  -1  66 NE3       30.73S

 IN RI

CITY           SKY/WX    TMP DP  RH WIND       PRES   REMARKS
PROVIDENCE     CLEAR     18   6  59 W3        30.73R
BLOCK ISLAND   CLEAR     27  14  59 W7        30.72S WCI  19
WESTERLY       CLEAR     15   9  76 CALM      30.74F

 IN MA

CITY           SKY/WX    TMP DP  RH WIND       PRES   REMARKS
BOSTON         CLEAR     27   2  34 W10       30.71S WCI  17
WORCESTER      CLEAR     18  -3  39 W10       30.64R WCI   6
WESTFIELD      CLEAR     11  -2  56 CALM      30.72S
PROVINCETOWN   CLEAR     23  14  68 W9        30.71S WCI  13
NANTUCKET      CLEAR     18   7  62 W5        30.73S WCI  11
$$

ANZ330-335-338-340-345-350-353-355-010400-
COASTAL MARINE OBSERVATIONS


STATION/POSITION TIME  SKY/WX   TEMP    WIND        PRES    VSBY  WAVE
                                AIR SEA DIR/SP/G                  HT/PER
                 (UTC)          (F)     (DEG/KT/KT) (MB)    (MI)  (FT/S)
NY HARB ENTRANCE 0300            29 37  260/  8/ 10 1041.9          2/ 9
4S FIRE IS       NOT AVBL
20S FIRE ISLAND  0200               37              1042.1          2/ 9
23SW MTP         0300                                 N/A           2/ 9
HUDSON CANYON    NOT AVBL
EXECUTION ROCKS  NOT AVBL
WESTERN LI SOUND NOT AVBL
CENTRAL LI SOUND NOT AVBL
EASTERN LI SOUND NOT AVBL
ROBBINS REEF     0300            26     270/  6/  7 1040.4
$$


>>>>>>>>>>>>>>>>>>>>>>>>>>>> KEY <<<<<<<<<<<<<<<<<<<<<<<<<<<
>                                                          <
>     SKY/WX - SKY CONDITION/PRESENT WEATHER               <
>     TMP    - TEMPERATURE IN FAHRENHEIT                   <
>     DP     - DEWPOINT IN FAHRENHEIT                      <
>     RH     - RELATIVE HUMIDITY IN PERCENT                <
>     WIND   - DIRECTION AND SPEED IN MPH                  <
>     PRES   - MEAN SEA LEVEL PRESSURE IN INCHES OF HG     <
>     WCI    - WIND CHILL INDEX                            <
>     VSB    - VISIBILITY IN MILES                         <
>     HX     - HEAT INDEX                                  <
>     TC     - TEMPERATURE IN CELSIUS                      <
>     VRB    - VARIABLE WIND DIRECTION                     <
>                                                          <
>>>>>>>>>>>>>>>>>>>>>>>>>>>> KEY <<<<<<<<<<<<<<<<<<<<<<<<<<<




USA.gov is the U.S. government's official web portal to all federal, state and local government web resources and services.